AIC914 VOBL-VOCL

Flight info

Callsign AIC914
Flight time N/A
Altitude 25000
Route AKTI8A AKTIM W118 CCB J16 CLC
Aircraft 320/M-VGDW/C

Departure

Time 2026-05-06 11:06
Airport Kempegowda International Airport Bengaluru (VOBL)

Arrival

Time N/A
Airport Calicut International Airport (VOCL)
Time Latitude Longitude Altitude Speed Heading
2026-05-06 10:35 13.20167 77.69823 2985 ft 0 kts 179°
2026-05-06 10:49 13.20174 77.69823 2985 ft 0 kts 179°
2026-05-06 10:50 13.20180 77.69823 2985 ft 0 kts 179°
2026-05-06 10:50 13.20194 77.69823 2986 ft 3 kts 179°
2026-05-06 10:51 13.20213 77.69823 2986 ft 3 kts 179°
2026-05-06 10:51 13.20232 77.69823 2986 ft 3 kts 179°
2026-05-06 10:51 13.20251 77.69822 2986 ft 3 kts 196°
2026-05-06 10:51 13.20268 77.69833 2985 ft 3 kts 239°
2026-05-06 10:52 13.20273 77.69846 2985 ft 0 kts 270°
2026-05-06 10:56 13.20273 77.69845 2985 ft 0 kts 271°
2026-05-06 10:56 13.20275 77.69834 2985 ft 0 kts 287°
2026-05-06 10:57 13.20275 77.69833 2985 ft 0 kts 287°
2026-05-06 10:57 13.20276 77.69831 2985 ft 3 kts 289°
2026-05-06 10:57 13.20334 77.69798 2986 ft 17 kts
2026-05-06 10:57 13.20396 77.69816 2986 ft 0 kts 17°
2026-05-06 10:58 13.20397 77.69816 2986 ft 0 kts 17°
2026-05-06 10:58 13.20398 77.69816 2986 ft 0 kts 17°
2026-05-06 10:58 13.20399 77.69816 2986 ft 0 kts 16°
2026-05-06 10:58 13.20400 77.69817 2986 ft 0 kts 16°
2026-05-06 10:59 13.20398 77.69816 2986 ft 1 kts 17°
2026-05-06 10:59 13.20387 77.69813 2986 ft 2 kts 11°
2026-05-06 10:59 13.20368 77.69812 2986 ft 3 kts 344°
2026-05-06 10:59 13.20344 77.69827 2986 ft 5 kts 305°
2026-05-06 11:00 13.20334 77.69860 2985 ft 0 kts 271°
2026-05-06 11:00 13.20334 77.69859 2985 ft 0 kts 271°
2026-05-06 11:00 13.20334 77.69856 2985 ft 2 kts 271°
2026-05-06 11:00 13.20326 77.69815 2986 ft 9 kts 257°
2026-05-06 11:01 13.20305 77.69727 2988 ft 15 kts 254°
2026-05-06 11:01 13.20293 77.69601 2990 ft 21 kts 269°
2026-05-06 11:01 13.20293 77.69441 2994 ft 21 kts 274°
2026-05-06 11:01 13.20351 77.69330 2996 ft 18 kts 354°
2026-05-06 11:02 13.20427 77.69335 2996 ft 10 kts
2026-05-06 11:02 13.20498 77.69333 2996 ft 9 kts 354°
2026-05-06 11:02 13.20538 77.69298 2997 ft 7 kts 289°
2026-05-06 11:02 13.20541 77.69257 2998 ft 5 kts 272°
2026-05-06 11:03 13.20542 77.69203 2999 ft 16 kts 271°
2026-05-06 11:03 13.20542 77.69013 3003 ft 26 kts 270°
2026-05-06 11:03 13.20545 77.68836 3007 ft 23 kts 270°
2026-05-06 11:03 13.20548 77.68674 3011 ft 21 kts 278°
2026-05-06 11:04 13.20620 77.68616 3013 ft 0 kts
2026-05-06 11:04 13.20622 77.68616 3013 ft 1 kts
2026-05-06 11:04 13.20627 77.68616 3013 ft 1 kts
2026-05-06 11:04 13.20694 77.68636 3017 ft 14 kts 38°
2026-05-06 11:05 13.20718 77.68704 3011 ft 0 kts 92°
2026-05-06 11:05 13.20718 77.68706 3011 ft 0 kts 92°
2026-05-06 11:06 13.20717 77.68796 3009 ft 46 kts 90°
2026-05-06 11:06 13.20709 77.69504 2994 ft 152 kts 90°
2026-05-06 11:06 13.20699 77.70727 3657 ft 183 kts 92°
2026-05-06 11:06 13.20785 77.72177 4187 ft 222 kts 74°
2026-05-06 11:07 13.21386 77.73539 4387 ft 197 kts 62°
2026-05-06 11:07 13.22034 77.74797 4584 ft 193 kts 61°
2026-05-06 11:07 13.22640 77.75940 4615 ft 179 kts 60°
2026-05-06 11:07 13.23334 77.77199 4729 ft 231 kts 60°
2026-05-06 11:08 13.24230 77.78779 4861 ft 276 kts 59°
2026-05-06 11:08 13.25174 77.80398 5044 ft 246 kts 58°
2026-05-06 11:08 13.25866 77.81860 5337 ft 208 kts 80°
2026-05-06 11:08 13.25978 77.83234 5914 ft 197 kts 84°
2026-05-06 11:09 13.26114 77.84768 6627 ft 234 kts 85°
2026-05-06 11:09 13.26231 77.86558 7361 ft 269 kts 85°
2026-05-06 11:09 13.26360 77.88583 8231 ft 298 kts 85°
2026-05-06 11:09 13.26459 77.90794 9255 ft 321 kts 86°
2026-05-06 11:10 13.26553 77.93144 10307 ft 339 kts 86°
2026-05-06 11:10 13.26603 77.95622 11436 ft 353 kts 88°
2026-05-06 11:10 13.26606 77.98187 12515 ft 369 kts 89°
2026-05-06 11:10 13.26568 78.00961 12649 ft 408 kts 90°
2026-05-06 11:11 13.26475 78.03990 12866 ft 438 kts 91°
2026-05-06 11:11 13.26309 78.06987 14741 ft 407 kts 99°
2026-05-06 11:11 13.25095 78.09307 16021 ft 347 kts 134°
2026-05-06 11:11 13.23781 78.09938 16320 ft 305 kts 181°
2026-05-06 11:12 13.21761 78.09977 16544 ft 279 kts 182°
2026-05-06 11:12 13.19882 78.09970 16605 ft 261 kts 183°
2026-05-06 11:12 13.17552 78.09916 16490 ft 247 kts 184°
2026-05-06 11:12 13.15855 78.09851 16285 ft 241 kts 185°
2026-05-06 11:13 13.14727 78.09798 16123 ft 240 kts 185°
2026-05-06 11:13 13.13061 78.09717 15851 ft 239 kts 185°
2026-05-06 11:13 13.11525 78.09392 15225 ft 226 kts 223°
2026-05-06 11:13 13.10862 78.08033 15957 ft 187 kts 265°
2026-05-06 11:14 13.10730 78.06733 17143 ft 194 kts 262°
2026-05-06 11:14 13.10497 78.05145 16817 ft 259 kts 262°
2026-05-06 11:14 13.10372 78.04289 16678 ft 286 kts 262°
2026-05-06 11:14 13.10305 78.03833 16613 ft 299 kts 262°
2026-05-06 11:15 13.09969 78.01525 16340 ft 354 kts 262°
2026-05-06 11:15 13.09578 77.98883 16402 ft 391 kts 262°
2026-05-06 11:15 13.09152 77.96040 16814 ft 414 kts 262°
2026-05-06 11:15 13.08709 77.93058 17241 ft 432 kts 262°
2026-05-06 11:16 13.08117 77.90003 17847 ft 442 kts 256°
2026-05-06 11:16 13.07235 77.86913 18024 ft 460 kts 253°
2026-05-06 11:16 13.06244 77.83807 18664 ft 456 kts 252°
2026-05-06 11:16 13.05254 77.80847 18677 ft 424 kts 251°
2026-05-06 11:17 13.04309 77.78079 18444 ft 401 kts 251°
2026-05-06 11:17 13.03385 77.75434 18159 ft 383 kts 251°
2026-05-06 11:17 13.02430 77.72903 17273 ft 381 kts 248°
2026-05-06 11:17 13.00784 77.71063 17666 ft 338 kts 200°
2026-05-06 11:18 12.98642 77.70583 18474 ft 295 kts 193°
2026-05-06 11:18 12.96742 77.70259 18922 ft 260 kts 191°
2026-05-06 11:18 12.95051 77.70030 19231 ft 231 kts 189°
2026-05-06 11:18 12.93540 77.69884 19404 ft 208 kts 187°
2026-05-06 11:19 12.92051 77.69736 19668 ft 224 kts 191°
2026-05-06 11:19 12.90461 77.69508 20001 ft 245 kts 191°
2026-05-06 11:19 12.88694 77.69234 20333 ft 267 kts 191°
2026-05-06 11:19 12.86769 77.68951 20669 ft 290 kts 190°
2026-05-06 11:20 12.84693 77.68648 21015 ft 312 kts 190°
2026-05-06 11:20 12.82487 77.68323 21491 ft 327 kts 190°
2026-05-06 11:20 12.80206 77.67982 22177 ft 334 kts 190°
2026-05-06 11:20 12.77882 77.67633 22915 ft 339 kts 190°
2026-05-06 11:21 12.75526 77.67276 23640 ft 344 kts 190°
2026-05-06 11:21 12.73148 77.66912 24244 ft 348 kts 190°
2026-05-06 11:21 12.70736 77.66539 24851 ft 352 kts 190°
2026-05-06 11:21 12.68307 77.66158 25427 ft 354 kts 190°
2026-05-06 11:22 12.65864 77.65771 25780 ft 357 kts 190°
2026-05-06 11:22 12.63400 77.65378 25881 ft 358 kts 190°
2026-05-06 11:22 12.60936 77.64997 25886 ft 359 kts 188°
2026-05-06 11:22 12.58470 77.64811 25884 ft 361 kts 185°
2026-05-06 11:23 12.55963 77.64622 25884 ft 361 kts 186°
2026-05-06 11:23 12.53464 77.64397 25875 ft 361 kts 186°
2026-05-06 11:23 12.50958 77.64167 25875 ft 361 kts 186°
2026-05-06 11:23 12.48454 77.63937 25872 ft 361 kts 186°
2026-05-06 11:24 12.45951 77.63706 25868 ft 361 kts 186°
2026-05-06 11:24 12.43447 77.63476 25865 ft 361 kts 186°
2026-05-06 11:24 12.40941 77.63245 25867 ft 364 kts 186°
2026-05-06 11:24 12.38364 77.63006 25868 ft 379 kts 186°
2026-05-06 11:25 12.35708 77.62757 25858 ft 386 kts 186°
2026-05-06 11:25 12.33023 77.62505 25855 ft 388 kts 186°
2026-05-06 11:25 12.30331 77.62251 25857 ft 388 kts 186°
2026-05-06 11:25 12.27667 77.61999 25851 ft 389 kts 186°
2026-05-06 11:26 12.24974 77.61745 25846 ft 389 kts 186°
2026-05-06 11:26 12.22276 77.61489 25841 ft 388 kts 186°
2026-05-06 11:26 12.19583 77.61234 25840 ft 389 kts 186°
2026-05-06 11:26 12.16888 77.60978 25841 ft 389 kts 186°
2026-05-06 11:27 12.14192 77.60724 25838 ft 389 kts 186°
2026-05-06 11:27 12.11499 77.60469 25832 ft 389 kts 186°
2026-05-06 11:27 12.08804 77.60216 25835 ft 389 kts 186°
2026-05-06 11:27 12.06137 77.59815 25830 ft 386 kts 198°
2026-05-06 11:28 12.03666 77.58758 25866 ft 386 kts 206°
2026-05-06 11:28 12.01244 77.57569 25910 ft 386 kts 207°
2026-05-06 11:28 11.98856 77.56318 25942 ft 386 kts 208°
2026-05-06 11:28 11.96464 77.55072 25855 ft 386 kts 207°
2026-05-06 11:29 11.94058 77.53851 25834 ft 386 kts 207°
2026-05-06 11:29 11.91646 77.52629 25833 ft 386 kts 207°
2026-05-06 11:29 11.89332 77.51458 25575 ft 384 kts 207°
2026-05-06 11:29 11.86944 77.50254 25058 ft 382 kts 207°
2026-05-06 11:30 11.84570 77.49064 24563 ft 378 kts 207°
2026-05-06 11:30 11.82212 77.47889 24077 ft 375 kts 207°
2026-05-06 11:30 11.79841 77.46713 23577 ft 373 kts 207°
2026-05-06 11:30 11.77516 77.45563 23027 ft 370 kts 207°
2026-05-06 11:31 11.75235 77.44439 22452 ft 367 kts 207°
2026-05-06 11:31 11.72912 77.43297 21877 ft 365 kts 207°
2026-05-06 11:31 11.70665 77.42195 21349 ft 361 kts 207°
2026-05-06 11:31 11.68409 77.41088 20796 ft 359 kts 207°
2026-05-06 11:32 11.66161 77.39989 20257 ft 356 kts 207°
2026-05-06 11:32 11.63928 77.38900 19719 ft 353 kts 207°
2026-05-06 11:32 11.61727 77.37808 19228 ft 350 kts 208°
2026-05-06 11:32 11.59547 77.36706 18917 ft 349 kts 208°
2026-05-06 11:33 11.57380 77.35594 18827 ft 350 kts 209°
2026-05-06 11:33 11.55235 77.34427 18813 ft 349 kts 210°
2026-05-06 11:33 11.53109 77.33258 18489 ft 344 kts 210°
2026-05-06 11:33 11.51041 77.32124 18288 ft 331 kts 210°
2026-05-06 11:34 11.49047 77.31033 17945 ft 323 kts 210°
2026-05-06 11:34 11.47044 77.29912 17033 ft 333 kts 209°
2026-05-06 11:34 11.44988 77.28736 16182 ft 343 kts 211°
2026-05-06 11:34 11.42865 77.27574 15322 ft 350 kts 208°
2026-05-06 11:35 11.40670 77.26439 14465 ft 356 kts 208°
2026-05-06 11:35 11.38454 77.25288 13618 ft 360 kts 207°
2026-05-06 11:35 11.36224 77.24121 12707 ft 359 kts 207°
2026-05-06 11:35 11.34050 77.22976 11835 ft 348 kts 207°
2026-05-06 11:36 11.31961 77.21897 10647 ft 330 kts 206°
2026-05-06 11:36 11.29933 77.20921 9546 ft 306 kts 204°
2026-05-06 11:36 11.28099 77.20057 8586 ft 278 kts 204°
2026-05-06 11:36 11.26403 77.19264 7861 ft 257 kts 204°
2026-05-06 11:37 11.24789 77.18519 7430 ft 250 kts 203°
2026-05-06 11:37 11.23172 77.17789 6925 ft 259 kts 202°
2026-05-06 11:37 11.21477 77.17083 6429 ft 267 kts 201°
2026-05-06 11:37 11.19750 77.16368 5573 ft 266 kts 201°
2026-05-06 11:38 11.18127 77.15646 4977 ft 242 kts 203°
2026-05-06 11:38 11.16641 77.14733 4825 ft 268 kts 218°
2026-05-06 11:38 11.15310 77.13255 4843 ft 284 kts 230°
2026-05-06 11:38 11.14168 77.11848 4703 ft 236 kts 230°
2026-05-06 11:39 11.13167 77.10581 4582 ft 217 kts 231°
2026-05-06 11:39 11.12230 77.09446 4440 ft 203 kts 228°
2026-05-06 11:39 11.11303 77.08369 4343 ft 220 kts 227°
2026-05-06 11:39 11.10175 77.07126 4128 ft 239 kts 226°
2026-05-06 11:40 11.09081 77.05918 3976 ft 223 kts 227°
2026-05-06 11:40 11.08087 77.04784 3884 ft 208 kts 227°
2026-05-06 11:40 11.07165 77.03710 3830 ft 207 kts 227°
2026-05-06 11:40 11.06186 77.02635 3788 ft 201 kts 225°
2026-05-06 11:41 11.05216 77.01658 3720 ft 200 kts 221°
2026-05-06 11:41 11.04073 77.00766 3781 ft 218 kts 208°
2026-05-06 11:41 11.02728 77.00355 3909 ft 189 kts 174°
2026-05-06 11:41 11.01491 77.00836 4000 ft 190 kts 143°
2026-05-06 11:42 11.00450 77.01561 3990 ft 177 kts 139°
2026-05-06 11:42 10.99434 77.02370 4014 ft 183 kts 137°
2026-05-06 11:42 10.98490 77.03153 3965 ft 168 kts 135°
2026-05-06 11:42 10.97534 77.03999 3960 ft 214 kts 135°
2026-05-06 11:43 10.96354 77.05117 3883 ft 230 kts 133°
2026-05-06 11:43 10.95321 77.06274 3704 ft 213 kts 120°
2026-05-06 11:43 10.94886 77.07622 3591 ft 192 kts 88°
2026-05-06 11:44 10.95992 77.09948 2898 ft 191 kts 50°
2026-05-06 11:44 10.96871 77.10923 2538 ft 182 kts 46°
2026-05-06 11:44 10.97737 77.11798 2251 ft 168 kts 49°
2026-05-06 11:44 10.98510 77.12671 2007 ft 163 kts 51°
2026-05-06 11:45 10.99245 77.13537 1772 ft 166 kts 51°
2026-05-06 11:45 10.99980 77.14391 1541 ft 156 kts 51°
2026-05-06 11:45 11.00686 77.15223 1287 ft 151 kts 50°
2026-05-06 11:45 11.01243 77.15854 1266 ft 76 kts 51°
2026-05-06 11:46 11.01534 77.16201 1265 ft 52 kts 50°
2026-05-06 11:46 11.01675 77.16389 1269 ft 27 kts 69°
2026-05-06 11:46 11.01713 77.16504 1266 ft 0 kts 74°